Flag for Australia Weather past 2 weeks in Samford, Queensland, Australia

Now
72 °F

Passing clouds.


Feels Like: 75 °F
Forecast: 60 / 78 °F
Wind: 7 mph from Southeast

Location: Brisbane Airport M. O


UV Index: 5 (Moderate)

Visibility: N/A


Pressure: 29.95 "Hg

Humidity: 69%

Dew point: 61 °F

Location of SamfordLocation

Historic Weather in Samford

°F

Samford temperature yesterday

Maximum temperature yesterday: 77 °F (at 1:00 PM)
Minimum temperature yesterday: 61 °F (at 11:00 PM)
Average temperature yesterday: 69 °F

Past Weeks' High & Low Weather Summary

 TemperatureHumidityPressure
High86 °F (Apr 12, 11:00 AM)100% (Apr 13, 9:00 PM)30.12 "Hg (Apr 13, 9:00 PM)
Low59 °F (Apr 16, 2:30 AM)39% (Apr 16, 1:00 PM)29.74 "Hg (Apr 11, 2:00 PM)
Average73 °F74%29.98 "Hg
* Reported Apr 1 5:00 PM — Apr 16 5:00 PM, Samford, Weather by CustomWeather, © 2014

Note: Actual official high and low records may vary slightly from our data, if they occured in-between our weather recording intervals... More about our weather records

Advertising

Historic Weather Conditions — Data for Previous 24 hours

 ConditionsComfort  
Time TempWeatherWind HumidityBarometerVisibility
5:00 PM
Apr 16
73 °FPassing clouds.7 mph61%29.92 "HgN/A
4:30 PM75 °FPassing clouds.7 mph57%29.92 "HgN/A
4:00 PM73 °FPassing clouds.8 mph57%29.92 "HgN/A
3:00 PM79 °FPassing clouds.9 mph45%29.92 "HgN/A
2:30 PM79 °FPassing clouds.9 mph48%29.92 "HgN/A
2:00 PM79 °FPassing clouds.5 mph42%29.92 "HgN/A
1:00 PM81 °FPassing clouds.14 mph39%29.95 "HgN/A
12:30 PM79 °FPassing clouds.9 mph42%29.95 "HgN/A
12:00 PM77 °FPassing clouds.8 mph44%29.95 "HgN/A
11:30 AM77 °FPassing clouds.10 mph47%29.98 "HgN/A
11:00 AM75 °FPassing clouds.9 mph47%29.98 "HgN/A
9:00 AM70 °FSunny.9 mph57%30.01 "Hg10 mi
8:30 AM70 °FSunny.12 mph73%30.04 "Hg10 mi
8:00 AM68 °FSunny.8 mph64%30.01 "Hg10 mi
7:30 AM66 °FSunny.10 mph73%30.01 "Hg10 mi
7:00 AM63 °FSunny.9 mph77%30.01 "Hg10 mi
6:30 AM61 °FSunny.8 mph77%29.98 "Hg10 mi
6:00 AM61 °FSunny.9 mph77%29.98 "Hg10 mi
5:30 AM61 °FSunny.9 mph83%29.98 "Hg10 mi
5:00 AM61 °FClear.8 mph83%29.98 "Hg10 mi
4:30 AM61 °FClear.8 mph83%29.95 "Hg10 mi
4:00 AM61 °FClear.9 mph83%29.95 "Hg10 mi
3:00 AM59 °FClear.8 mph82%29.95 "Hg10 mi
2:30 AM59 °FPassing clouds.7 mph88%29.95 "HgN/A
2:00 AM61 °FPassing clouds.8 mph83%29.95 "HgN/A
1:00 AM61 °FPassing clouds.8 mph83%29.98 "HgN/A
12:30 AM63 °FPassing clouds.8 mph83%29.98 "HgN/A
12:00 AM64 °FPassing clouds.7 mph73%29.98 "HgN/A
11:30 PM
Apr 15
63 °FPassing clouds.8 mph83%29.98 "HgN/A
11:00 PM61 °FPassing clouds.7 mph83%30.01 "HgN/A
10:30 PM64 °FPassing clouds.7 mph78%30.01 "HgN/A
10:00 PM63 °FPassing clouds.9 mph77%30.01 "HgN/A
9:30 PM66 °FPassing clouds.8 mph68%30.01 "HgN/A
9:00 PM68 °FPassing clouds.9 mph64%30.01 "HgN/A
8:30 PM70 °FPassing clouds.13 mph60%30.01 "HgN/A
8:00 PM70 °FPassing clouds.12 mph60%30.01 "HgN/A
7:30 PM70 °FPassing clouds.10 mph64%29.98 "HgN/A
7:00 PM70 °FPassing clouds.10 mph64%29.98 "HgN/A
6:30 PM70 °FPassing clouds.8 mph64%29.98 "HgN/A
6:00 PM70 °FPassing clouds.9 mph60%29.95 "HgN/A
Weather by CustomWeather, © 2014

See weather overview